Location: Unsp...
(0.0000°N, 0.0000°E)
Time: 14:47:02
(UTC+02:00)

Daily predictions for brighter satellites

Satellite Brightness Start Highest point End
(mag) Time Altitude Azimuth Time Altitude Azimuth Time Altitude Azimuth
ATLAS CENTAUR Rocket 4.4 19:36:30 10° SW 19:42:31 49° SE 20:23:10 10° ENE
ATLAS CENTAUR Rocket 4.4 19:36:30 10° SW 19:42:32 49° SE 20:23:10 10° ENE
ARIANE 5 R/B 4.0 19:48:12 10° W 19:52:33 83° S 20:31:47 10° E
ARIANE 5 R/B 4.0 19:48:12 10° W 19:52:34 83° S 20:31:46 10° E
ARIANE 5 R/B 4.0 19:48:12 10° W 19:52:34 83° S 20:31:47 10° E
Ariane Rocket 3.5 19:58:42 10° S 20:03:45 68° WSW 20:08:48 10° NNW
Cosmos 2322 Rocket 2.6 20:00:50 10° N 20:06:04 40° ENE 20:11:18 10° SE
Thor Agena Rocket 3.6 20:02:10 10° NNE 20:07:04 54° ESE 20:11:59 10° S
ARIANE 5 DEB (SYLDA) 3.7 20:06:42 10° WNW 20:10:12 52° N 20:17:18 10° ENE
Cosmos 1626 2.3 20:08:07 10° N 20:11:43 48° E 20:15:19 10° SSE
USA 267 4.5 20:11:03 10° NNE 20:17:04 41° NW 20:23:08 10° WSW
NOSS 3-4 (A) 4.0 20:12:00 10° NNW 20:19:37 77° ENE 20:27:29 10° SSE
NOSS 3-4 (C) 4.0 20:12:07 10° NNW 20:19:43 76° ENE 20:27:36 10° SSE
SPOT 3 Rocket 4.0 20:16:19 10° SE 20:21:06 39° ENE 20:25:53 10° N
SMAP 4.3 20:16:44 10° S 20:21:12 47° WSW 20:25:39 10° NNW
YAOGAN 1 2.5 20:17:22 10° SSE 20:21:42 85° ENE 20:26:01 10° N
BLOCK DM-SL R/B 1.9 20:13:45 10° W 20:25:21 84° S 20:27:44 15° E
GPS 2-17 Rocket1 4.2 20:21:27 10° W 20:25:46 35° NNW 20:30:00 10° NE
Ariane H10-3 4.3 20:23:09 10° W 20:26:52 79° N 20:41:21 15° E
ARIANE 5 DEB (SYLDA) 3.6 20:23:31 10° WSW 20:27:02 67° S 20:38:42 13° E
GPS 2-14 Rocket1 4.2 20:25:51 10° NNW 20:28:42 20° NNE 20:30:36 14° ENE
Palapa B4 Rocket 3.9 20:25:26 10° W 20:29:54 59° NNW 20:35:47 14° ENE
SL-23 DEB 4.5 20:27:12 10° S 20:29:57 26° SE 20:31:29 18° E
Cosmos 1339 Rocket 4.4 20:24:22 10° N 20:30:35 82° E 20:36:43 10° S
Cosmos 1727 Rocket 4.0 20:25:45 10° N 20:32:03 82° E 20:38:20 10° S
Meteor 2-10 4.0 20:27:13 10° S 20:32:12 55° E 20:37:05 10° NNE
Cosmos 2098 Rocket 2.8 20:33:11 10° S 20:36:22 69° W 20:40:11 10° N
ARIANE 5 DEB (SYLDA) 1.7 20:32:55 10° W 20:36:41 70° S 20:37:30 30° ESE
ERS-2 4.2 20:36:17 10° SSW 20:39:36 31° WSW 20:42:54 10° NW
ATLAS 3B CENTAUR R/B 4.0 20:34:21 10° NNW 20:39:59 34° NE 20:48:59 17° E
Cosmos 2056 Rocket 3.6 20:35:36 10° NNW 20:40:46 79° WSW 20:45:54 10° S
Cosmos 1315 Rocket 3.1 20:37:28 10° NNE 20:41:25 46° E 20:45:23 10° SSE
METEOR-M 4.2 20:39:56 10° S 20:45:18 82° WSW 20:50:38 10° NNW
Delta 202 4.0 20:44:21 10° WNW 20:49:58 85° NNE 20:55:23 20° ESE
NOAA 12 4.0 20:46:17 10° SSE 20:51:31 68° ENE 20:56:45 10° N
ATLAS 2AS CENTAUR RB 3.5 20:26:52 10° W 20:52:36 45° NNW 20:56:01 20° NE
Cosmos 2151 3.8 20:48:52 10° NNW 20:52:58 51° W 20:57:04 10° S
ARIANE 3 DEB 1.5 20:50:49 10° W 20:52:59 63° S 20:53:02 63° S
Cosmos 1726 3.9 20:50:42 10° SSW 20:54:06 33° W 20:57:29 10° NNW
Cosmos 494 Rocket 4.3 20:51:58 10° SSW 20:57:05 66° WNW 21:02:08 10° N
Cosmos 1452 Rocket 3.6 20:53:32 10° N 20:58:34 48° ENE 21:03:37 10° SSE
SL-16 R/B 3.3 20:56:12 10° NNW 21:01:36 47° WSW 21:07:00 10° S
RESURS DK-1 4.5 20:59:48 10° N 21:00:25 14° NNE 21:00:25 14° NNE
Cosmos 2227 Rocket 2.6 20:58:14 10° SSW 21:03:48 63° WNW 21:09:22 10° N
Cosmos 1151 Rocket 4.3 21:03:32 10° SSE 21:05:40 25° SE 21:05:40 25° SE
Cosmos 2251 Rocket 3.7 21:05:57 10° SSW 21:11:10 70° WNW 21:16:23 10° N
SEDSat Delta rocket 3.4 21:07:33 10° NW 21:11:56 48° NE 21:12:05 48° NE
ARIANE 5 DEB (SYLDA) 3.3 21:12:07 10° WSW 21:14:06 54° SSW 21:14:06 54° SSW
Ariane H10+ 2.9 21:12:44 10° WSW 21:16:15 51° S 21:17:42 38° SE
ALOS 3.0 21:13:21 10° S 21:17:55 53° W 21:22:26 10° NNW
Cosmos 1515 Rocket 3.5 21:14:13 10° S 21:18:17 66° SE 21:18:17 66° SE
Delta 142 3.5 21:14:27 10° NW 21:18:46 76° NNE 21:19:09 70° ENE
ARIANE 5 R/B 1.6 21:15:41 10° W 21:21:49 57° NW 21:21:49 57° NW
Meteor 2-17 Rocket 4.3 21:16:40 10° S 21:22:38 62° E 21:24:08 47° NE
BREEZE-M (TANK) 4.2 21:23:37 10° NW 21:24:33 19° WNW 21:24:33 19° WNW
Cosmos 921 Rocket 3.3 21:24:10 10° NNW 21:28:26 65° W 21:32:38 10° S
ISS -1.6 21:27:18 10° NW 21:28:44 23° WNW 21:28:44 23° WNW
GPS 2-12 Rocket1 4.3 21:27:45 10° W 21:31:42 31° SSW 21:32:08 31° S
Cosmos 2228 Rocket 4.0 21:34:26 10° SSW 21:38:44 48° W 21:39:41 41° NW
FengYun 1-2 T 4.2 21:34:56 10° S 21:40:30 78° WSW 21:46:00 10° NNW
Cosmos 2297 Rocket 3.9 21:36:41 10° SW 21:41:36 31° WNW 21:46:30 10° NNW
Cosmos 2360 Rocket 2.7 21:36:24 10° NNW 21:41:56 57° WSW 21:47:30 10° S
Cosmos 1420 Rocket 4.5 21:37:52 10° NNW 21:48:58 - S 21:41:54 53° NW
ARIANE 5 DEB (SYLDA) 4.0 21:36:08 10° W 22:01:40 72° S 22:01:53 71° SSE
Milstar 3 Cent rocket 4.0 22:04:18 10° NW 22:06:52 23° NW 22:06:52 23° NW
ARIANE DEB (SYLDA) 4.5 22:14:49 10° WNW 22:19:13 27° WNW 22:19:13 27° WNW
